Time,TemperatureF,DewpointF,PressureIn,WindDirection,WindDirectionDegrees,WindSpeedMPH,WindSpeedGustMPH,Humidity,HourlyPrecipIn,Conditions,Clouds,dailyrainin,SoftwareType,DateUTC
2013-04-25 00:01:00,34.9,16.7,28.85,West,266,4.0,4.0,47,0.00,,,0.00,VWS V13.01,2013-04-25 05:01:00,
2013-04-25 00:06:00,34.9,16.7,28.85,WNW,296,3.1,3.1,47,0.00,,,0.00,VWS V13.01,2013-04-25 05:06:00,
2013-04-25 00:11:00,34.7,16.0,28.82,NW,313,3.6,3.6,46,0.00,,,0.00,VWS V13.01,2013-04-25 05:11:00,
2013-04-25 00:16:00,34.7,16.0,28.82,NNW,330,2.7,3.1,46,0.00,,,0.00,VWS V13.01,2013-04-25 05:16:00,
2013-04-25 00:21:00,34.5,15.9,28.82,NW,312,2.7,3.1,46,0.00,,,0.00,VWS V13.01,2013-04-25 05:21:00,
2013-04-25 00:26:00,34.5,15.9,28.85,West,268,3.6,4.0,46,0.00,,,0.00,VWS V13.01,2013-04-25 05:26:00,
2013-04-25 00:31:00,34.5,15.9,28.85,WSW,249,2.2,2.2,46,0.00,,,0.00,VWS V13.01,2013-04-25 05:31:00,
2013-04-25 00:36:00,34.5,15.9,28.85,WNW,302,0.0,2.7,46,0.00,,,0.00,VWS V13.01,2013-04-25 05:36:00,
2013-04-25 00:41:00,34.3,15.7,28.85,NW,312,2.7,4.0,46,0.00,,,0.00,VWS V13.01,2013-04-25 05:41:00,
2013-04-25 00:46:00,34.3,15.7,28.85,NNW,334,3.1,3.1,46,0.00,,,0.00,VWS V13.01,2013-04-25 05:46:00,
2013-04-25 00:51:00,34.2,15.6,28.85,WNW,290,3.6,4.0,46,0.00,,,0.00,VWS V13.01,2013-04-25 05:51:00,
2013-04-25 00:56:00,34.2,15.1,28.85,WNW,298,2.7,2.7,45,0.00,,,0.00,VWS V13.01,2013-04-25 05:56:00,
2013-04-25 01:01:00,34.2,15.1,28.85,NW,310,5.4,5.4,45,0.00,,,0.00,VWS V13.01,2013-04-25 06:01:00,
2013-04-25 01:06:00,34.0,14.9,28.85,WSW,257,5.4,5.4,45,0.00,,,0.00,VWS V13.01,2013-04-25 06:06:00,
2013-04-25 01:11:00,33.8,14.7,28.88,WNW,292,3.1,3.1,45,0.00,,,0.00,VWS V13.01,2013-04-25 06:11:00,
2013-04-25 01:16:00,33.6,14.6,28.88,WSW,244,4.0,4.0,45,0.00,,,0.00,VWS V13.01,2013-04-25 06:16:00,
2013-04-25 01:21:00,33.6,14.6,28.88,WSW,241,8.7,8.7,45,0.00,,,0.00,VWS V13.01,2013-04-25 06:21:00,
2013-04-25 01:26:00,33.4,14.4,28.88,West,275,2.7,5.8,45,0.00,,,0.00,VWS V13.01,2013-04-25 06:26:00,
2013-04-25 01:31:00,33.3,13.7,28.88,NW,320,2.7,2.7,44,0.00,,,0.00,VWS V13.01,2013-04-25 06:31:00,
2013-04-25 01:36:00,33.3,13.7,28.88,NNW,342,3.1,6.3,44,0.00,,,0.00,VWS V13.01,2013-04-25 06:36:00,
2013-04-25 01:41:00,33.1,13.0,28.88,NW,317,2.2,3.1,43,0.00,,,0.00,VWS V13.01,2013-04-25 06:41:00,
2013-04-25 01:46:00,33.1,13.0,28.88,NNW,345,3.6,5.4,43,0.00,,,0.00,VWS V13.01,2013-04-25 06:46:00,
2013-04-25 01:51:00,32.9,12.3,28.88,SW,224,2.2,3.1,42,0.00,,,0.00,VWS V13.01,2013-04-25 06:51:00,
2013-04-25 01:56:00,32.7,12.2,28.88,NNW,344,3.1,5.8,42,0.00,,,0.00,VWS V13.01,2013-04-25 06:56:00,
2013-04-25 02:01:00,32.7,12.2,28.88,WSW,242,2.7,2.7,42,0.00,,,0.00,VWS V13.01,2013-04-25 07:01:00,
2013-04-25 02:06:00,32.5,11.5,28.88,NW,312,3.6,5.4,41,0.00,,,0.00,VWS V13.01,2013-04-25 07:06:00,
2013-04-25 02:11:00,32.5,10.9,28.88,NW,312,5.4,5.4,40,0.00,,,0.00,VWS V13.01,2013-04-25 07:11:00,
2013-04-25 02:16:00,32.5,10.9,28.88,NNW,329,5.8,5.8,40,0.00,,,0.00,VWS V13.01,2013-04-25 07:16:00,
2013-04-25 02:21:00,32.5,9.2,28.88,WNW,299,3.6,4.0,37,0.00,,,0.00,VWS V13.01,2013-04-25 07:21:00,
2013-04-25 02:26:00,32.5,7.9,28.88,WNW,302,3.6,3.6,35,0.00,,,0.00,VWS V13.01,2013-04-25 07:26:00,
2013-04-25 02:31:00,32.5,7.3,28.88,ENE,73,3.1,3.1,34,0.00,,,0.00,VWS V13.01,2013-04-25 07:31:00,
2013-04-25 02:36:00,32.5,6.6,28.88,WNW,297,6.3,6.3,33,0.00,,,0.00,VWS V13.01,2013-04-25 07:36:00,
2013-04-25 02:41:00,32.5,6.6,28.88,West,271,3.1,4.0,33,0.00,,,0.00,VWS V13.01,2013-04-25 07:41:00,
2013-04-25 02:46:00,32.4,5.8,28.88,SSE,160,0.0,2.7,32,0.00,,,0.00,VWS V13.01,2013-04-25 07:46:00,
2013-04-25 02:51:00,32.2,5.7,28.88,WNW,295,0.0,2.7,32,0.00,,,0.00,VWS V13.01,2013-04-25 07:51:00,
2013-04-25 02:56:00,31.1,4.0,28.88,WNW,291,2.7,2.7,31,0.00,,,0.00,VWS V13.01,2013-04-25 07:56:00,
2013-04-25 03:01:00,30.7,4.4,28.88,WNW,282,3.6,3.6,32,0.00,,,0.00,VWS V13.01,2013-04-25 08:01:00,
2013-04-25 03:06:00,31.6,7.8,28.88,West,262,2.2,5.4,36,0.00,,,0.00,VWS V13.01,2013-04-25 08:06:00,
2013-04-25 03:11:00,32.0,7.5,28.91,NNW,330,3.6,3.6,35,0.00,,,0.00,VWS V13.01,2013-04-25 08:11:00,
2013-04-25 03:16:00,32.2,7.0,28.91,WNW,283,0.0,2.2,34,0.00,,,0.00,VWS V13.01,2013-04-25 08:16:00,
2013-04-25 03:21:00,32.2,6.3,28.91,West,281,3.6,3.6,33,0.00,,,0.00,VWS V13.01,2013-04-25 08:21:00,
2013-04-25 03:26:00,32.2,5.7,28.91,WNW,291,2.7,3.6,32,0.00,,,0.00,VWS V13.01,2013-04-25 08:26:00,
2013-04-25 03:31:00,32.4,5.8,28.91,WNW,294,2.2,2.2,32,0.00,,,0.00,VWS V13.01,2013-04-25 08:31:00,
2013-04-25 03:37:00,32.4,5.8,28.91,West,271,4.0,4.0,32,0.00,,,0.00,VWS V13.01,2013-04-25 08:37:00,
2013-04-25 03:41:00,32.4,5.1,28.91,WSW,246,3.6,3.6,31,0.00,,,0.00,VWS V13.01,2013-04-25 08:41:00,
2013-04-25 03:47:00,32.4,5.1,28.91,NW,316,3.6,4.9,31,0.00,,,0.00,VWS V13.01,2013-04-25 08:47:00,
2013-04-25 03:51:00,32.0,4.8,28.91,West,271,2.2,5.4,31,0.00,,,0.00,VWS V13.01,2013-04-25 08:51:00,
2013-04-25 03:56:00,31.1,4.0,28.91,NNW,330,3.1,4.0,31,0.00,,,0.00,VWS V13.01,2013-04-25 08:56:00,
2013-04-25 04:02:00,30.2,3.2,28.91,SW,229,3.1,3.1,31,0.00,,,0.00,VWS V13.01,2013-04-25 09:02:00,
2013-04-25 04:07:00,29.7,3.4,28.91,NNW,328,0.0,4.0,32,0.00,,,0.00,VWS V13.01,2013-04-25 09:07:00,
2013-04-25 04:12:00,29.8,4.9,28.91,WSW,254,2.7,4.0,34,0.00,,,0.00,VWS V13.01,2013-04-25 09:12:00,
2013-04-25 04:17:00,30.4,7.2,28.91,SW,226,0.0,0.0,37,0.00,,,0.00,VWS V13.01,2013-04-25 09:17:00,
2013-04-25 04:22:00,31.1,8.5,28.91,West,278,0.0,2.7,38,0.00,,,0.00,VWS V13.01,2013-04-25 09:22:00,
2013-04-25 04:27:00,31.1,8.5,28.91,WSW,257,0.0,0.0,38,0.00,,,0.00,VWS V13.01,2013-04-25 09:27:00,
2013-04-25 04:32:00,31.1,7.9,28.91,WSW,257,0.0,0.0,37,0.00,,,0.00,VWS V13.01,2013-04-25 09:32:00,
2013-04-25 04:37:00,31.1,8.5,28.91,SW,225,0.0,0.0,38,0.00,,,0.00,VWS V13.01,2013-04-25 09:37:00,
2013-04-25 04:42:00,30.9,7.1,28.91,WNW,288,0.0,0.0,36,0.00,,,0.00,VWS V13.01,2013-04-25 09:42:00,
2013-04-25 04:47:00,30.2,5.9,28.91,West,276,0.0,0.0,35,0.00,,,0.00,VWS V13.01,2013-04-25 09:47:00,
2013-04-25 04:52:00,30.2,7.7,28.91,West,263,2.7,2.7,38,0.00,,,0.00,VWS V13.01,2013-04-25 09:52:00,
2013-04-25 04:57:00,30.2,8.2,28.94,West,267,4.0,4.0,39,0.00,,,0.00,VWS V13.01,2013-04-25 09:57:00,
2013-04-25 05:02:00,30.2,8.2,28.94,NW,310,0.0,0.0,39,0.00,,,0.00,VWS V13.01,2013-04-25 10:02:00,
2013-04-25 05:07:00,30.2,7.1,28.94,WNW,283,0.0,0.0,37,0.00,,,0.00,VWS V13.01,2013-04-25 10:07:00,
2013-04-25 05:12:00,29.7,6.0,28.94,West,273,2.7,2.7,36,0.00,,,0.00,VWS V13.01,2013-04-25 10:12:00,
2013-04-25 05:17:00,28.8,5.8,28.94,WNW,289,0.0,2.7,37,0.00,,,0.00,VWS V13.01,2013-04-25 10:17:00,
2013-04-25 05:22:00,28.6,5.6,28.94,NW,315,2.2,3.1,37,0.00,,,0.00,VWS V13.01,2013-04-25 10:22:00,
2013-04-25 05:27:00,28.6,6.2,28.94,WSW,258,0.0,0.0,38,0.00,,,0.00,VWS V13.01,2013-04-25 10:27:00,
2013-04-25 05:32:00,27.9,5.6,28.94,SSE,155,0.0,0.0,38,0.00,,,0.00,VWS V13.01,2013-04-25 10:32:00,
2013-04-25 05:37:00,28.4,7.7,28.94,West,279,3.1,3.6,41,0.00,,,0.00,VWS V13.01,2013-04-25 10:37:00,
2013-04-25 05:42:00,27.9,7.2,28.97,West,259,0.0,0.0,41,0.00,,,0.00,VWS V13.01,2013-04-25 10:42:00,
2013-04-25 05:47:00,27.5,6.9,28.97,West,270,2.2,2.2,41,0.00,,,0.00,VWS V13.01,2013-04-25 10:47:00,
2013-04-25 05:52:00,27.9,7.2,28.97,West,281,0.0,0.0,41,0.00,,,0.00,VWS V13.01,2013-04-25 10:52:00,
2013-04-25 05:57:00,28.4,8.2,28.97,West,269,2.2,2.7,42,0.00,,,0.00,VWS V13.01,2013-04-25 10:57:00,
2013-04-25 06:02:00,27.9,7.8,28.97,SW,234,0.0,0.0,42,0.00,,,0.00,VWS V13.01,2013-04-25 11:02:00,
2013-04-25 06:07:00,27.5,6.9,28.97,West,279,0.0,0.0,41,0.00,,,0.00,VWS V13.01,2013-04-25 11:07:00,
2013-04-25 06:12:00,27.3,6.7,28.97,West,268,0.0,2.7,41,0.00,,,0.00,VWS V13.01,2013-04-25 11:12:00,
2013-04-25 06:17:00,27.3,7.3,28.97,WSW,256,0.0,0.0,42,0.00,,,0.00,VWS V13.01,2013-04-25 11:17:00,
2013-04-25 06:22:00,27.3,7.3,28.97,SW,222,0.0,2.2,42,0.00,,,0.00,VWS V13.01,2013-04-25 11:22:00,
2013-04-25 06:27:00,27.9,7.8,28.97,NNW,331,0.0,0.0,42,0.00,,,0.00,VWS V13.01,2013-04-25 11:27:00,
2013-04-25 06:32:00,27.5,7.4,28.97,NNE,14,0.0,0.0,42,0.00,,,0.00,VWS V13.01,2013-04-25 11:32:00,
2013-04-25 06:37:00,27.5,7.4,28.97,WNW,296,0.0,0.0,42,0.00,,,0.00,VWS V13.01,2013-04-25 11:37:00,
2013-04-25 06:42:00,27.7,7.6,28.97,West,270,0.0,0.0,42,0.00,,,0.00,VWS V13.01,2013-04-25 11:42:00,
2013-04-25 06:47:00,28.8,8.6,28.97,WNW,292,0.0,0.0,42,0.00,,,0.00,VWS V13.01,2013-04-25 11:47:00,
2013-04-25 06:52:00,29.7,8.9,28.97,West,273,3.1,4.5,41,0.00,,,0.00,VWS V13.01,2013-04-25 11:52:00,
2013-04-25 06:57:00,30.9,8.9,29.00,WSW,257,0.0,2.2,39,0.00,,,0.00,VWS V13.01,2013-04-25 11:57:00,
2013-04-25 07:02:00,30.6,7.4,29.00,SSW,208,3.6,6.3,37,0.00,,,0.00,VWS V13.01,2013-04-25 12:02:00,
2013-04-25 07:07:00,31.8,8.5,29.00,WNW,300,5.4,5.4,37,0.00,,,0.00,VWS V13.01,2013-04-25 12:07:00,
2013-04-25 07:12:00,32.5,7.3,29.00,West,281,0.0,2.7,34,0.00,,,0.00,VWS V13.01,2013-04-25 12:12:00,
2013-04-25 07:17:00,32.2,6.3,29.00,West,262,0.0,0.0,33,0.00,,,0.00,VWS V13.01,2013-04-25 12:17:00,
2013-04-25 07:22:00,32.5,6.6,29.00,SSW,209,0.0,2.2,33,0.00,,,0.00,VWS V13.01,2013-04-25 12:22:00,
2013-04-25 07:27:00,32.4,5.8,29.00,SSW,196,2.7,2.7,32,0.00,,,0.00,VWS V13.01,2013-04-25 12:27:00,
2013-04-25 07:32:00,32.5,5.3,29.00,WNW,300,3.1,3.1,31,0.00,,,0.00,VWS V13.01,2013-04-25 12:32:00,
2013-04-25 07:37:00,33.3,5.9,29.00,WNW,298,0.0,5.8,31,0.00,,,0.00,VWS V13.01,2013-04-25 12:37:00,
2013-04-25 07:42:00,34.2,3.7,29.00,WSW,245,0.0,0.0,27,0.00,,,0.00,VWS V13.01,2013-04-25 12:42:00,
2013-04-25 07:47:00,33.3,-0.5,29.00,SW,227,2.7,5.8,23,0.00,,,0.00,VWS V13.01,2013-04-25 12:47:00,
2013-04-25 07:52:00,33.8,-3.0,29.00,WSW,240,4.0,4.0,20,0.00,,,0.00,VWS V13.01,2013-04-25 12:52:00,
2013-04-25 07:57:00,35.8,-2.4,29.00,West,268,2.7,3.1,19,0.00,,,0.00,VWS V13.01,2013-04-25 12:57:00,
2013-04-25 08:02:00,38.8,-3.5,29.00,SW,228,3.1,4.0,16,0.00,,,0.00,VWS V13.01,2013-04-25 13:02:00,
2013-04-25 08:07:00,38.7,-3.7,29.00,WNW,302,3.1,3.1,16,0.00,,,0.00,VWS V13.01,2013-04-25 13:07:00,
2013-04-25 08:12:00,39.2,-7.5,29.03,NW,305,3.6,3.6,13,0.00,,,0.00,VWS V13.01,2013-04-25 13:12:00,
2013-04-25 08:17:00,38.8,-6.3,29.03,West,272,2.7,4.0,14,0.00,,,0.00,VWS V13.01,2013-04-25 13:17:00,
2013-04-25 08:22:00,39.6,-7.2,29.03,NW,306,2.7,2.7,13,0.00,,,0.00,VWS V13.01,2013-04-25 13:22:00,
2013-04-25 08:27:00,41.4,-5.8,29.03,SSW,199,2.7,5.4,13,0.00,,,0.00,VWS V13.01,2013-04-25 13:27:00,
2013-04-25 08:32:00,40.1,-6.8,29.03,NNW,327,6.3,6.3,13,0.00,,,0.00,VWS V13.01,2013-04-25 13:32:00,
2013-04-25 08:37:00,40.6,-6.4,29.03,West,267,0.0,0.0,13,0.00,,,0.00,VWS V13.01,2013-04-25 13:37:00,
2013-04-25 08:42:00,40.5,-6.5,29.03,West,273,4.0,4.0,13,0.00,,,0.00,VWS V13.01,2013-04-25 13:42:00,
2013-04-25 08:47:00,40.3,-6.7,29.03,WSW,255,4.0,4.9,13,0.00,,,0.00,VWS V13.01,2013-04-25 13:47:00,
2013-04-25 08:52:00,42.8,-4.6,29.03,SSW,197,2.7,2.7,13,0.00,,,0.00,VWS V13.01,2013-04-25 13:52:00,
2013-04-25 08:57:00,41.2,-5.9,29.03,NW,318,3.1,3.1,13,0.00,,,0.00,VWS V13.01,2013-04-25 13:57:00,
2013-04-25 09:02:00,43.2,-4.3,29.03,West,272,2.7,3.1,13,0.00,,,0.00,VWS V13.01,2013-04-25 14:02:00,
2013-04-25 09:07:00,45.3,-4.3,29.03,SSW,202,3.1,3.6,12,0.00,,,0.00,VWS V13.01,2013-04-25 14:07:00,
2013-04-25 09:12:00,45.0,-4.6,29.03,SSW,193,2.2,2.2,12,0.00,,,0.00,VWS V13.01,2013-04-25 14:12:00,
2013-04-25 09:17:00,44.8,-4.7,29.03,West,278,6.3,6.3,12,0.00,,,0.00,VWS V13.01,2013-04-25 14:17:00,
2013-04-25 09:22:00,42.8,-4.6,29.03,SW,217,0.0,0.0,13,0.00,,,0.00,VWS V13.01,2013-04-25 14:22:00,
2013-04-25 09:27:00,41.2,-5.9,29.03,SSW,213,5.4,5.4,13,0.00,,,0.00,VWS V13.01,2013-04-25 14:27:00,
2013-04-25 09:32:00,40.3,-6.7,29.03,SW,222,0.0,0.0,13,0.00,,,0.00,VWS V13.01,2013-04-25 14:32:00,
2013-04-25 09:36:00,39.7,-7.1,29.03,SSW,206,2.7,3.1,13,0.00,,,0.00,VWS V13.01,2013-04-25 14:36:00,
2013-04-25 09:41:00,39.2,-7.5,29.03,WSW,243,3.6,3.6,13,0.00,,,0.00,VWS V13.01,2013-04-25 14:41:00,
2013-04-25 09:46:00,40.3,-6.7,29.03,WNW,293,2.2,3.1,13,0.00,,,0.00,VWS V13.01,2013-04-25 14:46:00,
2013-04-25 09:51:00,41.0,-6.1,29.03,South,183,3.1,4.0,13,0.00,,,0.00,VWS V13.01,2013-04-25 14:51:00,
2013-04-25 09:56:00,42.8,-4.6,29.03,WSW,255,3.6,3.6,13,0.00,,,0.00,VWS V13.01,2013-04-25 14:56:00,
2013-04-25 10:01:00,42.6,-4.8,29.03,West,265,5.8,5.8,13,0.00,,,0.00,VWS V13.01,2013-04-25 15:01:00,
2013-04-25 10:06:00,44.8,-4.7,29.03,South,172,2.2,4.0,12,0.00,,,0.00,VWS V13.01,2013-04-25 15:06:00,
2013-04-25 10:11:00,44.1,-3.6,29.06,South,179,6.3,6.3,13,0.00,,,0.00,VWS V13.01,2013-04-25 15:11:00,
2013-04-25 10:16:00,44.6,-4.9,29.06,SW,233,4.9,5.4,12,0.00,,,0.00,VWS V13.01,2013-04-25 15:16:00,
2013-04-25 10:21:00,48.4,-3.7,29.06,South,179,4.0,4.0,11,0.00,,,0.00,VWS V13.01,2013-04-25 15:21:00,
2013-04-25 10:26:00,45.3,-4.3,29.06,WSW,256,3.1,4.0,12,0.00,,,0.00,VWS V13.01,2013-04-25 15:26:00,
2013-04-25 10:31:00,43.3,-4.2,29.06,SW,225,3.1,3.1,13,0.00,,,0.00,VWS V13.01,2013-04-25 15:31:00,
2013-04-25 10:36:00,45.9,-3.9,29.06,SW,229,4.0,4.0,12,0.00,,,0.00,VWS V13.01,2013-04-25 15:36:00,
2013-04-25 10:41:00,42.3,-5.1,29.06,South,181,2.7,5.4,13,0.00,,,0.00,VWS V13.01,2013-04-25 15:41:00,
2013-04-25 10:46:00,43.5,-4.1,29.06,SSE,168,2.7,3.1,13,0.00,,,0.00,VWS V13.01,2013-04-25 15:46:00,
2013-04-25 10:51:00,45.9,-3.9,29.06,South,180,6.3,6.3,12,0.00,,,0.00,VWS V13.01,2013-04-25 15:51:00,
2013-04-25 10:56:00,45.3,-4.3,29.06,SW,231,5.8,6.3,12,0.00,,,0.00,VWS V13.01,2013-04-25 15:56:00,
2013-04-25 11:01:00,46.0,-3.7,29.06,SSW,194,5.8,8.3,12,0.00,,,0.00,VWS V13.01,2013-04-25 16:01:00,
2013-04-25 11:06:00,47.5,-2.6,29.06,SW,217,2.7,5.8,12,0.00,,,0.00,VWS V13.01,2013-04-25 16:06:00,
2013-04-25 11:11:00,45.0,-4.6,29.06,NW,320,2.7,6.3,12,0.00,,,0.00,VWS V13.01,2013-04-25 16:11:00,
2013-04-25 11:16:00,45.7,-4.0,29.06,West,268,4.9,4.9,12,0.00,,,0.00,VWS V13.01,2013-04-25 16:16:00,
2013-04-25 11:21:00,48.4,-3.7,29.06,NNW,341,0.0,0.0,11,0.00,,,0.00,VWS V13.01,2013-04-25 16:21:00,
2013-04-25 11:26:00,51.6,-1.2,29.06,SSW,194,0.0,4.0,11,0.00,,,0.00,VWS V13.01,2013-04-25 16:26:00,
2013-04-25 11:31:00,47.7,-2.5,29.06,WNW,301,4.0,4.9,12,0.00,,,0.00,VWS V13.01,2013-04-25 16:31:00,
2013-04-25 11:36:00,45.3,-4.3,29.06,WSW,249,3.6,3.6,12,0.00,,,0.00,VWS V13.01,2013-04-25 16:36:00,
2013-04-25 11:41:00,44.2,-3.5,29.06,NW,307,2.2,3.1,13,0.00,,,0.00,VWS V13.01,2013-04-25 16:41:00,
2013-04-25 11:46:00,43.9,-3.8,29.06,WNW,299,4.0,4.0,13,0.00,,,0.00,VWS V13.01,2013-04-25 16:46:00,
2013-04-25 11:51:00,45.9,-3.9,29.06,West,259,0.0,3.6,12,0.00,,,0.00,VWS V13.01,2013-04-25 16:51:00,
2013-04-25 11:56:00,45.5,-4.2,29.06,NW,319,3.1,3.1,12,0.00,,,0.00,VWS V13.01,2013-04-25 16:56:00,
2013-04-25 12:01:00,46.2,-3.6,29.06,WSW,243,3.1,3.6,12,0.00,,,0.00,VWS V13.01,2013-04-25 17:01:00,
2013-04-25 12:06:00,48.9,-3.3,29.06,SSW,194,2.2,4.9,11,0.00,,,0.00,VWS V13.01,2013-04-25 17:06:00,
2013-04-25 12:11:00,50.2,-2.3,29.06,West,277,2.7,4.0,11,0.00,,,0.00,VWS V13.01,2013-04-25 17:11:00,
2013-04-25 12:16:00,46.9,-3.0,29.06,SSE,161,3.1,3.1,12,0.00,,,0.00,VWS V13.01,2013-04-25 17:16:00,
2013-04-25 12:21:00,50.4,-2.2,29.06,South,177,4.0,4.0,11,0.00,,,0.00,VWS V13.01,2013-04-25 17:21:00,
2013-04-25 12:26:00,50.2,-2.3,29.06,West,262,6.3,6.3,11,0.00,,,0.00,VWS V13.01,2013-04-25 17:26:00,
2013-04-25 12:31:00,53.4,0.2,29.06,South,170,5.8,8.3,11,0.00,,,0.00,VWS V13.01,2013-04-25 17:31:00,
2013-04-25 12:36:00,51.4,-1.3,29.03,WNW,283,3.1,3.6,11,0.00,,,0.00,VWS V13.01,2013-04-25 17:36:00,
2013-04-25 12:41:00,49.1,-3.1,29.03,West,259,3.1,6.3,11,0.00,,,0.00,VWS V13.01,2013-04-25 17:41:00,
2013-04-25 12:46:00,46.6,-3.3,29.03,WSW,238,5.4,5.8,12,0.00,,,0.00,VWS V13.01,2013-04-25 17:46:00,
2013-04-25 12:51:00,50.0,-2.4,29.03,South,182,3.1,5.8,11,0.00,,,0.00,VWS V13.01,2013-04-25 17:51:00,
2013-04-25 12:56:00,51.6,-1.2,29.03,WSW,257,2.7,3.6,11,0.00,,,0.00,VWS V13.01,2013-04-25 17:56:00,
2013-04-25 13:01:00,52.2,-0.8,29.03,South,176,2.7,4.0,11,0.00,,,0.00,VWS V13.01,2013-04-25 18:01:00,
2013-04-25 13:06:00,49.1,-3.1,29.03,SSW,212,3.1,3.6,11,0.00,,,0.00,VWS V13.01,2013-04-25 18:06:00,
2013-04-25 13:11:00,51.3,-1.5,29.03,WSW,243,5.8,6.3,11,0.00,,,0.00,VWS V13.01,2013-04-25 18:11:00,
2013-04-25 13:16:00,50.4,-2.2,29.03,South,182,8.1,10.1,11,0.00,,,0.00,VWS V13.01,2013-04-25 18:16:00,
2013-04-25 13:21:00,52.7,-0.3,29.03,South,176,4.9,5.4,11,0.00,,,0.00,VWS V13.01,2013-04-25 18:21:00,
2013-04-25 13:26:00,50.7,-1.9,29.03,SSW,204,6.3,7.2,11,0.00,,,0.00,VWS V13.01,2013-04-25 18:26:00,
2013-04-25 13:31:00,48.0,-2.2,29.03,SW,226,4.9,4.9,12,0.00,,,0.00,VWS V13.01,2013-04-25 18:31:00,
2013-04-25 13:36:00,49.1,-3.1,29.03,SW,217,0.0,4.0,11,0.00,,,0.00,VWS V13.01,2013-04-25 18:36:00,
2013-04-25 13:41:00,54.5,-0.9,29.03,SSW,212,3.1,4.9,10,0.00,,,0.00,VWS V13.01,2013-04-25 18:41:00,
2013-04-25 13:46:00,52.5,-0.5,29.03,NNE,32,4.9,4.9,11,0.00,,,0.00,VWS V13.01,2013-04-25 18:46:00,
2013-04-25 13:51:00,49.3,-3.0,29.03,SE,133,6.3,8.3,11,0.00,,,0.00,VWS V13.01,2013-04-25 18:51:00,
2013-04-25 13:56:00,48.2,-3.8,29.03,SE,132,11.0,11.0,11,0.00,,,0.00,VWS V13.01,2013-04-25 18:56:00,
2013-04-25 14:01:00,50.2,-2.3,29.03,SSW,201,3.1,4.0,11,0.00,,,0.00,VWS V13.01,2013-04-25 19:01:00,
2013-04-25 14:06:00,51.3,-1.5,29.03,SSW,193,5.4,8.1,11,0.00,,,0.00,VWS V13.01,2013-04-25 19:06:00,
2013-04-25 14:11:00,51.6,-1.2,29.03,SW,222,3.6,6.3,11,0.00,,,0.00,VWS V13.01,2013-04-25 19:11:00,
2013-04-25 14:16:00,49.6,-2.7,29.03,SE,144,8.3,8.7,11,0.00,,,0.00,VWS V13.01,2013-04-25 19:16:00,
2013-04-25 14:21:00,50.4,-2.2,29.03,SE,146,8.7,11.4,11,0.00,,,0.00,VWS V13.01,2013-04-25 19:21:00,
2013-04-25 14:26:00,52.3,-0.6,29.03,West,264,4.9,4.9,11,0.00,,,0.00,VWS V13.01,2013-04-25 19:26:00,
2013-04-25 14:31:00,54.1,-1.2,29.03,SSE,152,6.3,6.3,10,0.00,,,0.00,VWS V13.01,2013-04-25 19:31:00,
2013-04-25 14:36:00,54.0,-1.4,29.03,SSE,161,6.3,6.3,10,0.00,,,0.00,VWS V13.01,2013-04-25 19:36:00,
2013-04-25 14:41:00,52.0,-0.9,29.00,SSE,160,3.1,8.7,11,0.00,,,0.00,VWS V13.01,2013-04-25 19:41:00,
2013-04-25 14:46:00,53.6,-1.6,29.00,SE,136,3.1,3.6,10,0.00,,,0.00,VWS V13.01,2013-04-25 19:46:00,
2013-04-25 14:51:00,52.2,-0.8,29.00,SSE,148,6.3,8.1,11,0.00,,,0.00,VWS V13.01,2013-04-25 19:51:00,
2013-04-25 14:56:00,48.4,-3.7,29.00,SE,126,10.1,10.1,11,0.00,,,0.00,VWS V13.01,2013-04-25 19:56:00,
2013-04-25 15:01:00,52.5,-0.5,29.00,SSW,201,4.0,6.3,11,0.00,,,0.00,VWS V13.01,2013-04-25 20:01:00,
2013-04-25 15:06:00,55.6,-0.1,29.00,SSE,147,5.4,6.3,10,0.00,,,0.00,VWS V13.01,2013-04-25 20:06:00,
2013-04-25 15:11:00,54.7,-0.8,29.00,SSE,161,4.9,6.7,10,0.00,,,0.00,VWS V13.01,2013-04-25 20:11:00,
2013-04-25 15:16:00,54.3,-1.1,29.00,WNW,293,3.1,3.1,10,0.00,,,0.00,VWS V13.01,2013-04-25 20:16:00,
2013-04-25 15:21:00,54.9,-0.7,29.00,SE,137,6.3,6.3,10,0.00,,,0.00,VWS V13.01,2013-04-25 20:21:00,
2013-04-25 15:26:00,53.6,-1.6,29.00,SE,130,6.7,6.7,10,0.00,,,0.00,VWS V13.01,2013-04-25 20:26:00,
2013-04-25 15:31:00,52.5,-0.5,29.00,South,181,3.1,3.1,11,0.00,,,0.00,VWS V13.01,2013-04-25 20:31:00,
2013-04-25 15:36:00,54.3,-1.1,29.00,South,169,5.4,5.8,10,0.00,,,0.00,VWS V13.01,2013-04-25 20:36:00,
2013-04-25 15:41:00,53.2,0.1,29.00,West,271,5.8,8.7,11,0.00,,,0.00,VWS V13.01,2013-04-25 20:41:00,
2013-04-25 15:46:00,51.3,-1.5,29.00,SSE,158,5.8,8.1,11,0.00,,,0.00,VWS V13.01,2013-04-25 20:46:00,
2013-04-25 15:51:00,49.6,-2.7,29.00,ESE,117,12.8,12.8,11,0.00,,,0.00,VWS V13.01,2013-04-25 20:51:00,
2013-04-25 15:56:00,52.7,-0.3,29.00,SSW,211,10.1,11.0,11,0.00,,,0.00,VWS V13.01,2013-04-25 20:56:00,
2013-04-25 16:01:00,51.8,-1.0,29.00,SSW,205,5.8,11.0,11,0.00,,,0.00,VWS V13.01,2013-04-25 21:01:00,
2013-04-25 16:06:00,53.1,-0.1,29.00,SE,146,8.7,10.5,11,0.00,,,0.00,VWS V13.01,2013-04-25 21:06:00,
2013-04-25 16:11:00,53.8,-1.5,29.00,WSW,239,3.6,3.6,10,0.00,,,0.00,VWS V13.01,2013-04-25 21:11:00,
2013-04-25 16:16:00,55.6,-0.1,29.00,SSW,204,3.1,3.1,10,0.00,,,0.00,VWS V13.01,2013-04-25 21:16:00,
2013-04-25 16:21:00,55.0,-0.5,29.00,SSE,149,9.6,9.6,10,0.00,,,0.00,VWS V13.01,2013-04-25 21:21:00,
2013-04-25 16:26:00,56.8,0.9,29.00,SSE,161,8.7,8.7,10,0.00,,,0.00,VWS V13.01,2013-04-25 21:26:00,
2013-04-25 16:31:00,55.9,0.2,29.00,SSE,155,7.6,11.0,10,0.00,,,0.00,VWS V13.01,2013-04-25 21:31:00,
2013-04-25 16:36:00,56.3,0.4,29.00,South,175,11.0,11.0,10,0.00,,,0.00,VWS V13.01,2013-04-25 21:36:00,
2013-04-25 16:41:00,55.6,-0.1,29.00,SSW,208,5.8,6.3,10,0.00,,,0.00,VWS V13.01,2013-04-25 21:41:00,
2013-04-25 16:46:00,55.0,-0.5,29.00,SE,144,8.1,8.3,10,0.00,,,0.00,VWS V13.01,2013-04-25 21:46:00,
2013-04-25 16:51:00,57.4,-1.0,29.00,SSE,151,5.4,6.7,9,0.00,,,0.00,VWS V13.01,2013-04-25 21:51:00,
2013-04-25 16:56:00,55.9,0.2,29.00,SSE,158,8.1,8.1,10,0.00,,,0.00,VWS V13.01,2013-04-25 21:56:00,
2013-04-25 17:01:00,58.1,-0.4,29.00,SE,143,0.0,5.4,9,0.00,,,0.00,VWS V13.01,2013-04-25 22:01:00,
2013-04-25 17:06:00,58.1,-0.4,29.00,WNW,292,3.1,3.6,9,0.00,,,0.00,VWS V13.01,2013-04-25 22:06:00,
2013-04-25 17:11:00,59.0,0.3,29.00,SSE,155,5.8,7.6,9,0.00,,,0.00,VWS V13.01,2013-04-25 22:11:00,
2013-04-25 17:16:00,55.2,-0.4,28.97,SE,132,5.8,5.8,10,0.00,,,0.00,VWS V13.01,2013-04-25 22:16:00,
2013-04-25 17:21:00,57.2,-1.1,28.97,South,191,3.1,5.4,9,0.00,,,0.00,VWS V13.01,2013-04-25 22:21:00,
2013-04-25 17:26:00,57.9,-0.6,28.97,South,188,5.4,6.3,9,0.00,,,0.00,VWS V13.01,2013-04-25 22:26:00,
2013-04-25 17:31:00,55.9,0.2,28.97,South,180,4.9,6.3,10,0.00,,,0.00,VWS V13.01,2013-04-25 22:31:00,
2013-04-25 17:36:00,57.2,-1.1,28.97,SSE,160,5.4,5.8,9,0.00,,,0.00,VWS V13.01,2013-04-25 22:36:00,
2013-04-25 17:41:00,56.3,0.4,28.97,SSE,157,5.4,6.3,10,0.00,,,0.00,VWS V13.01,2013-04-25 22:41:00,
2013-04-25 17:46:00,56.3,0.4,28.97,South,186,5.8,5.8,10,0.00,,,0.00,VWS V13.01,2013-04-25 22:46:00,
2013-04-25 17:51:00,57.2,-1.1,28.97,SSW,192,0.0,3.1,9,0.00,,,0.00,VWS V13.01,2013-04-25 22:51:00,
2013-04-25 17:56:00,59.0,0.3,28.97,SSE,162,5.8,5.8,9,0.00,,,0.00,VWS V13.01,2013-04-25 22:56:00,
2013-04-25 18:01:00,55.6,-0.1,28.97,SSE,167,8.1,8.1,10,0.00,,,0.00,VWS V13.01,2013-04-25 23:01:00,
2013-04-25 18:06:00,50.2,-2.3,28.97,South,171,8.3,12.8,11,0.00,,,0.00,VWS V13.01,2013-04-25 23:06:00,
2013-04-25 18:11:00,53.1,-0.1,28.97,SE,133,4.0,4.0,11,0.00,,,0.00,VWS V13.01,2013-04-25 23:11:00,
2013-04-25 18:16:00,49.6,-2.7,28.97,SE,129,5.8,7.6,11,0.00,,,0.00,VWS V13.01,2013-04-25 23:16:00,
2013-04-25 18:21:00,50.0,-2.4,28.97,SE,143,6.3,7.6,11,0.00,,,0.00,VWS V13.01,2013-04-25 23:21:00,
2013-04-25 18:26:00,50.9,-1.7,28.97,SSE,158,7.6,7.6,11,0.00,,,0.00,VWS V13.01,2013-04-25 23:26:00,
2013-04-25 18:31:00,51.3,-1.5,28.97,SSE,156,4.0,8.7,11,0.00,,,0.00,VWS V13.01,2013-04-25 23:31:00,
2013-04-25 18:36:00,50.2,-2.3,28.97,SSE,149,7.6,10.5,11,0.00,,,0.00,VWS V13.01,2013-04-25 23:36:00,
2013-04-25 18:41:00,49.3,-3.0,28.97,SE,143,5.8,8.1,11,0.00,,,0.00,VWS V13.01,2013-04-25 23:41:00,
2013-04-25 18:46:00,49.1,-3.1,28.97,SSE,157,6.3,8.7,11,0.00,,,0.00,VWS V13.01,2013-04-25 23:46:00,
2013-04-25 18:51:00,50.9,-1.7,28.97,SSE,157,8.1,8.7,11,0.00,,,0.00,VWS V13.01,2013-04-25 23:51:00,
2013-04-25 18:56:00,49.5,-2.9,28.97,SE,143,8.7,10.1,11,0.00,,,0.00,VWS V13.01,2013-04-25 23:56:00,
2013-04-25 19:01:00,48.9,-3.3,28.97,SSE,162,6.3,8.7,11,0.00,,,0.00,VWS V13.01,2013-04-26 00:01:00,
2013-04-25 19:06:00,48.6,-3.6,28.97,SE,140,5.8,6.7,11,0.00,,,0.00,VWS V13.01,2013-04-26 00:06:00,
2013-04-25 19:11:00,48.2,-3.8,28.97,SE,140,10.5,10.5,11,0.00,,,0.00,VWS V13.01,2013-04-26 00:11:00,
2013-04-25 19:16:00,48.0,-2.2,28.97,SE,132,6.3,7.6,12,0.00,,,0.00,VWS V13.01,2013-04-26 00:16:00,
2013-04-25 19:21:00,47.7,-2.5,28.97,SE,141,6.3,6.7,12,0.00,,,0.00,VWS V13.01,2013-04-26 00:21:00,
2013-04-25 19:25:00,47.5,-2.6,28.97,SE,141,5.4,7.2,12,0.00,,,0.00,VWS V13.01,2013-04-26 00:25:00,
2013-04-25 19:30:00,47.1,-2.9,28.97,SSE,151,5.4,6.3,12,0.00,,,0.00,VWS V13.01,2013-04-26 00:30:00,
2013-04-25 19:35:00,47.3,-2.7,28.97,SSE,148,7.6,7.6,12,0.00,,,0.00,VWS V13.01,2013-04-26 00:35:00,
2013-04-25 19:40:00,47.1,-2.9,28.97,ESE,116,5.4,5.4,12,0.00,,,0.00,VWS V13.01,2013-04-26 00:40:00,
2013-04-25 19:45:00,47.3,-2.7,28.97,SE,127,5.4,6.3,12,0.00,,,0.00,VWS V13.01,2013-04-26 00:45:00,
2013-04-25 19:50:00,46.9,-3.0,28.97,ESE,109,4.0,5.4,12,0.00,,,0.00,VWS V13.01,2013-04-26 00:50:00,
2013-04-25 19:55:00,47.1,-2.9,28.97,East,95,5.8,5.8,12,0.00,,,0.00,VWS V13.01,2013-04-26 00:55:00,
2013-04-25 20:00:00,46.9,-3.0,28.97,SE,126,4.0,5.8,12,0.00,,,0.00,VWS V13.01,2013-04-26 01:00:00,
2013-04-25 20:05:00,46.9,-3.0,28.97,SE,141,4.0,4.9,12,0.00,,,0.00,VWS V13.01,2013-04-26 01:05:00,
2013-04-25 20:10:00,46.6,-3.3,28.97,ESE,122,4.0,4.0,12,0.00,,,0.00,VWS V13.01,2013-04-26 01:10:00,
2013-04-25 20:15:00,46.2,-3.6,28.97,ESE,108,3.6,3.6,12,0.00,,,0.00,VWS V13.01,2013-04-26 01:15:00,
2013-04-25 20:20:00,46.2,-3.6,28.97,SE,127,3.6,3.6,12,0.00,,,0.00,VWS V13.01,2013-04-26 01:20:00,
2013-04-25 20:25:00,45.9,-3.9,28.97,East,84,2.7,2.7,12,0.00,,,0.00,VWS V13.01,2013-04-26 01:25:00,
2013-04-25 20:30:00,45.9,-3.9,28.97,East,92,4.9,4.9,12,0.00,,,0.00,VWS V13.01,2013-04-26 01:30:00,
2013-04-25 20:35:00,46.0,-3.7,28.97,East,100,4.0,4.0,12,0.00,,,0.00,VWS V13.01,2013-04-26 01:35:00,
2013-04-25 20:40:00,45.9,-3.9,28.97,East,98,5.4,5.8,12,0.00,,,0.00,VWS V13.01,2013-04-26 01:40:00,
2013-04-25 20:45:00,45.7,-4.0,28.97,East,96,4.0,4.0,12,0.00,,,0.00,VWS V13.01,2013-04-26 01:45:00,
2013-04-25 20:50:00,45.9,-3.9,28.97,ESE,119,5.4,5.4,12,0.00,,,0.00,VWS V13.01,2013-04-26 01:50:00,
2013-04-25 20:55:00,45.7,-4.0,28.97,ESE,112,4.9,5.4,12,0.00,,,0.00,VWS V13.01,2013-04-26 01:55:00,
2013-04-25 21:00:00,45.7,-4.0,28.97,ENE,67,5.4,5.4,12,0.00,,,0.00,VWS V13.01,2013-04-26 02:00:00,
2013-04-25 21:05:00,45.5,-4.2,28.97,East,96,7.6,7.6,12,0.00,,,0.00,VWS V13.01,2013-04-26 02:05:00,
2013-04-25 21:10:00,45.5,-4.2,28.97,East,101,5.8,5.8,12,0.00,,,0.00,VWS V13.01,2013-04-26 02:10:00,
2013-04-25 21:15:00,45.1,-4.4,28.94,ESE,115,6.3,6.3,12,0.00,,,0.00,VWS V13.01,2013-04-26 02:15:00,
2013-04-25 21:20:00,45.1,-4.4,28.94,East,93,3.1,3.1,12,0.00,,,0.00,VWS V13.01,2013-04-26 02:20:00,
2013-04-25 21:25:00,45.1,-4.4,28.94,ENE,63,3.1,6.3,12,0.00,,,0.00,VWS V13.01,2013-04-26 02:25:00,
2013-04-25 21:30:00,44.8,-4.7,28.94,East,88,4.0,4.9,12,0.00,,,0.00,VWS V13.01,2013-04-26 02:30:00,
2013-04-25 21:35:00,44.6,-4.9,28.94,East,90,8.1,8.1,12,0.00,,,0.00,VWS V13.01,2013-04-26 02:35:00,
2013-04-25 21:40:00,45.1,-4.4,28.94,East,92,5.8,6.7,12,0.00,,,0.00,VWS V13.01,2013-04-26 02:40:00,
2013-04-25 21:45:00,44.8,-4.7,28.94,East,98,4.0,4.0,12,0.00,,,0.00,VWS V13.01,2013-04-26 02:45:00,
2013-04-25 21:50:00,44.8,-4.7,28.94,ESE,108,2.7,5.8,12,0.00,,,0.00,VWS V13.01,2013-04-26 02:50:00,
2013-04-25 21:55:00,44.6,-4.9,28.94,East,83,5.4,5.4,12,0.00,,,0.00,VWS V13.01,2013-04-26 02:55:00,
2013-04-25 22:00:00,45.0,-4.6,28.94,ENE,69,3.6,6.3,12,0.00,,,0.00,VWS V13.01,2013-04-26 03:00:00,
2013-04-25 22:05:00,44.8,-4.7,28.94,ESE,108,5.8,6.3,12,0.00,,,0.00,VWS V13.01,2013-04-26 03:05:00,
2013-04-25 22:10:00,45.0,-4.6,28.94,ENE,71,4.9,5.4,12,0.00,,,0.00,VWS V13.01,2013-04-26 03:10:00,
2013-04-25 22:15:00,44.6,-4.9,28.94,East,94,3.1,4.0,12,0.00,,,0.00,VWS V13.01,2013-04-26 03:15:00,
2013-04-25 22:20:00,44.6,-4.9,28.94,East,83,3.1,5.4,12,0.00,,,0.00,VWS V13.01,2013-04-26 03:20:00,
2013-04-25 22:25:00,44.6,-4.9,28.94,ESE,103,5.8,5.8,12,0.00,,,0.00,VWS V13.01,2013-04-26 03:25:00,
2013-04-25 22:30:00,44.4,-3.3,28.94,East,95,6.7,6.7,13,0.00,,,0.00,VWS V13.01,2013-04-26 03:30:00,
2013-04-25 22:35:00,44.4,-3.3,28.94,ESE,118,6.3,7.6,13,0.00,,,0.00,VWS V13.01,2013-04-26 03:35:00,
2013-04-25 22:40:00,44.4,-3.3,28.94,East,100,8.7,8.7,13,0.00,,,0.00,VWS V13.01,2013-04-26 03:40:00,
2013-04-25 22:45:00,44.2,-3.5,28.94,ESE,103,5.8,5.8,13,0.00,,,0.00,VWS V13.01,2013-04-26 03:45:00,
2013-04-25 22:50:00,44.2,-3.5,28.94,SE,124,5.8,5.8,13,0.00,,,0.00,VWS V13.01,2013-04-26 03:50:00,
2013-04-25 22:55:00,44.6,-4.9,28.94,ESE,107,4.9,5.4,12,0.00,,,0.00,VWS V13.01,2013-04-26 03:55:00,
2013-04-25 23:00:00,44.8,-4.7,28.94,ESE,103,7.6,7.6,12,0.00,,,0.00,VWS V13.01,2013-04-26 04:00:00,
2013-04-25 23:01:00,44.8,-4.7,28.94,ESE,114,3.6,5.4,12,0.00,,,0.00,VWS V13.01,2013-04-26 04:01:00,
2013-04-25 23:06:00,44.8,-4.7,28.94,East,92,4.5,7.6,12,0.00,,,0.00,VWS V13.01,2013-04-26 04:06:00,
2013-04-25 23:11:00,45.1,-4.4,28.91,ESE,112,8.7,11.0,12,0.00,,,0.00,VWS V13.01,2013-04-26 04:11:00,
2013-04-25 23:16:00,45.1,-4.4,28.91,ESE,110,6.3,7.6,12,0.00,,,0.00,VWS V13.01,2013-04-26 04:16:00,
2013-04-25 23:21:00,45.0,-4.6,28.91,East,85,5.8,7.6,12,0.00,,,0.00,VWS V13.01,2013-04-26 04:21:00,
2013-04-25 23:26:00,45.1,-4.4,28.91,East,92,7.6,8.3,12,0.00,,,0.00,VWS V13.01,2013-04-26 04:26:00,
2013-04-25 23:31:00,45.0,-4.6,28.91,East,91,5.4,10.5,12,0.00,,,0.00,VWS V13.01,2013-04-26 04:31:00,
2013-04-25 23:36:00,45.1,-4.4,28.91,ESE,109,7.2,8.3,12,0.00,,,0.00,VWS V13.01,2013-04-26 04:36:00,
2013-04-25 23:41:00,45.0,-4.6,28.91,ESE,115,6.3,8.3,12,0.00,,,0.00,VWS V13.01,2013-04-26 04:41:00,
2013-04-25 23:46:00,45.0,-4.6,28.91,ESE,112,8.3,8.7,12,0.00,,,0.00,VWS V13.01,2013-04-26 04:46:00,
2013-04-25 23:51:00,45.0,-4.6,28.91,East,99,6.7,9.2,12,0.00,,,0.00,VWS V13.01,2013-04-26 04:51:00,
2013-04-25 23:56:00,44.6,-4.9,28.91,ESE,113,10.5,10.5,12,0.00,,,0.00,VWS V13.01,2013-04-26 04:56:00,